TimeMST,TemperatureF,Dew PointF,Humidity,Sea Level PressureIn,VisibilityMPH,Wind Direction,Wind SpeedMPH,Gust SpeedMPH,PrecipitationIn,Events,Conditions,WindDirDegrees,DateUTC
12:15 AM,26.6,21.2,80,30.48,10.0,Calm,Calm,-,N/A,,Clear,0,2011-11-09 07:15:00
12:35 AM,26.6,21.2,80,30.49,10.0,Calm,Calm,-,N/A,,Clear,0,2011-11-09 07:35:00
12:55 AM,24.8,19.4,80,30.49,10.0,ESE,4.6,-,N/A,,Clear,120,2011-11-09 07:55:00
1:15 AM,24.8,21.2,86,30.48,10.0,SE,5.8,-,N/A,,Clear,140,2011-11-09 08:15:00
1:35 AM,24.8,21.2,86,30.47,10.0,SE,8.1,-,N/A,,Clear,140,2011-11-09 08:35:00
1:55 AM,26.6,21.2,80,30.48,10.0,ENE,3.5,-,N/A,,Clear,60,2011-11-09 08:55:00
2:15 AM,24.8,21.2,86,30.50,10.0,NE,3.5,-,N/A,,Clear,40,2011-11-09 09:15:00
2:35 AM,23.0,19.4,86,30.50,10.0,Calm,Calm,-,N/A,,Clear,0,2011-11-09 09:35:00
2:55 AM,23.0,21.2,93,30.49,10.0,Calm,Calm,-,N/A,,Clear,0,2011-11-09 09:55:00
3:15 AM,21.2,19.4,93,30.49,10.0,Calm,Calm,-,N/A,,Clear,0,2011-11-09 10:15:00
3:35 AM,23.0,17.6,80,30.49,10.0,Calm,Calm,-,N/A,,Clear,0,2011-11-09 10:35:00
3:55 AM,24.8,21.2,86,30.49,10.0,East,4.6,-,N/A,,Clear,100,2011-11-09 10:55:00
4:15 AM,21.2,17.6,86,30.49,10.0,ESE,4.6,-,N/A,,Clear,110,2011-11-09 11:15:00
4:35 AM,24.8,21.2,86,30.49,10.0,SE,4.6,-,N/A,,Clear,130,2011-11-09 11:35:00
4:55 AM,26.6,19.4,74,30.49,10.0,SE,4.6,-,N/A,,Clear,140,2011-11-09 11:55:00
5:15 AM,23.0,17.6,80,30.49,10.0,South,3.5,-,N/A,,Clear,170,2011-11-09 12:15:00
5:35 AM,24.8,19.4,80,30.50,10.0,SSW,5.8,-,N/A,,Clear,200,2011-11-09 12:35:00
5:55 AM,23.0,19.4,86,30.51,10.0,SSE,4.6,-,N/A,,Clear,160,2011-11-09 12:55:00
6:15 AM,21.2,19.4,93,30.51,10.0,Calm,Calm,-,N/A,,Clear,0,2011-11-09 13:15:00
6:35 AM,21.2,19.4,93,30.52,10.0,East,3.5,-,N/A,,Clear,80,2011-11-09 13:35:00
7:50 AM,23.0,17.6,80,30.55,10.0,Calm,Calm,-,N/A,,Clear,0,2011-11-09 14:50:00
8:50 AM,28.4,23.0,80,30.58,15.0,Variable,5.8,-,N/A,,Clear,0,2011-11-09 15:50:00
9:50 AM,33.8,24.8,70,30.58,15.0,Variable,5.8,-,N/A,,Clear,0,2011-11-09 16:50:00
11:55 AM,35.6,23.0,60,30.55,10.0,SSW,4.6,-,N/A,,Partly Cloudy,200,2011-11-09 18:55:00
12:47 PM,37.4,24.8,60,30.54,7.0,SW,4.6,-,N/A,,Haze,220,2011-11-09 19:47:00
1:50 PM,39.2,21.2,49,30.51,12.0,Variable,3.5,-,N/A,,Partly Cloudy,0,2011-11-09 20:50:00
2:49 PM,39.2,21.2,49,30.49,12.0,Variable,4.6,-,N/A,,Partly Cloudy,0,2011-11-09 21:49:00
3:52 PM,39.2,19.4,45,30.49,10.0,Variable,3.5,-,N/A,,Partly Cloudy,0,2011-11-09 22:52:00
4:48 PM,39.2,21.2,49,30.49,-9999.0,Calm,Calm,-,N/A,,Partly Cloudy,0,2011-11-09 23:48:00
5:47 PM,37.4,23.0,56,30.48,12.0,Calm,Calm,-,N/A,,Partly Cloudy,0,2011-11-10 00:47:00
7:56 PM,30.2,26.6,86,30.49,12.0,Calm,Calm,-,N/A,,Partly Cloudy,0,2011-11-10 02:56:00
8:47 PM,28.4,24.8,86,30.49,12.0,Calm,Calm,-,N/A,,Partly Cloudy,0,2011-11-10 03:47:00
9:15 PM,28.4,23.0,80,30.49,10.0,Calm,Calm,-,N/A,,Clear,0,2011-11-10 04:15:00
9:35 PM,28.4,23.0,80,30.50,10.0,Calm,Calm,-,N/A,,Clear,0,2011-11-10 04:35:00
9:55 PM,28.4,23.0,80,30.50,10.0,SE,3.5,-,N/A,,Clear,140,2011-11-10 04:55:00
10:15 PM,26.6,21.2,80,30.50,10.0,Calm,Calm,-,N/A,,Clear,0,2011-11-10 05:15:00
10:35 PM,26.6,21.2,80,30.50,10.0,South,3.5,-,N/A,,Clear,180,2011-11-10 05:35:00
10:55 PM,26.6,24.8,93,30.50,10.0,SE,4.6,-,N/A,,Clear,140,2011-11-10 05:55:00
11:15 PM,24.8,19.4,80,30.50,10.0,Calm,Calm,-,N/A,,Clear,0,2011-11-10 06:15:00
11:35 PM,24.8,23.0,93,30.50,10.0,Calm,Calm,-,N/A,,Clear,0,2011-11-10 06:35:00
11:55 PM,24.8,21.2,86,30.50,10.0,East,3.5,-,N/A,,Clear,80,2011-11-10 06:55:00